COSMOS 1275 DEB, 20505

Orbit data source: Space-Track

COSMOS 1275 DEB, 20505 is space debris in LEO originally from a launch on Thu, 04 Jun 1981 UTC launched from the Plesetsk Missile And Space Complex (PKMTR). Debris objects in space refer to the collection of defunct objects orbiting the Earth. Examples of debris include non-operational satellites, rocket bodies, and fragments generated from explosions, collisions, or faulty payload assembly.

Loading next visibility...
Identifier
20505, 1981-053MM
Orbit
LEO
Country
Flag of CISCIS
Related business
Manufacturer
Unknown
Mission
Spacecraft
Bus & Motor
Unknown
Mass
Unknown
Launch date (UTC)
1981-06-04 (44 years ago)
Launch vehicle
Unknown
Launch site
Plesetsk Missile And Space Complex (PKMTR)
Object type
Payload
Rocket body
Debris
Shape & HBR
Unknown shape, 0.1 m
Radar Cross Section
Small (<0.1 m²)

Expand to show TLE details & history
Last TLE update: 16 hours ago

TLE from 16 hours ago
0 COSMOS 1275 DEB
1 20505U 81053MM  25286.88213843  .00011833  00000-0  28632-2 0  9998
2 20505  83.1495  93.8966 0014142  77.0039 283.2739 14.52909150639630
Epoch: 2025-10-13T21:10Z
TLE epoch observation values (Epoch: 2025-10-13T21:10:16.760Z)
Latitude
-0.00002°
Longitude
113.64822°
Altitude
716.886 km
Speed
7.498 km/s
True Right ascension
06h 15m 35s
True Declination
0° 00' 00"
Sunlit
Object was in daylight at epoch
Visualization orbit readout
Latitude
Unknown
Longitude
Unknown
Altitude
Unknown
Speed
Unknown
Apparent Right ascension
Unknown
Apparent Declination
Unknown
Sunlit
N/A
Visualization observer readout
Local Sidereal Time
07:54:21
Azimuth
Unknown
Elevation
Unknown
Doppler factor
Unknown
Orbital elements
Apogee altitude
723.225 km
Perigee altitude
703.168 km
Semi-major axis
7,091.334 km
Eccentricity
0.00141
Inclination
83.1495°
RAAN
93.8966°
Arg. of periapsis
77.0039°
True anomaly
283.11611°
Mean anomaly
283.2739°
Eccentric anomaly
283.19501°
Mean motion
3.63456 °/min
Orbital period
99.05 mins
BSTAR
0.0028632
Loading maneuver chart data...
Computing Atmospheric mass density...

Documentation

Showing up to 5 results
|